Regional Weather Roundup
Issued by NWS

Home | Current Version | Previous Version | Text Only | Print | Product List | Glossary On
Versions: 1 2 3 4 5 6 7 8 9 10 11 12 13 14 15 16 17 18 19 20 21 22 23 24 25 26 27 28 29 30 31 32 33 34 35 36 37 38 39 40 41 42 43 44 45 46 47 48 49 50
000
ASUS43 KDTX 310810
RWRMI
MICHIGAN HOURLY REGIONAL WEATHER ROUNDUP
NATIONAL WEATHER SERVICE DETROIT/PONTIAC MI
400 AM EDT THU JUL 31 2014

NOTE: "FAIR" INDICATES FEW OR NO CLOUDS BELOW 12,000 FEET WITH NO
SIGNIFICANT WEATHER AND/OR OBSTRUCTION TO VISIBILITY.

MIZ047>049-052>055-059>063-066>070-074>076-081>083-310900-
SOUTHEAST LOWER MICHIGAN

CITY           SKY/WX    TMP DP  RH WIND       PRES   REMARKS
ADRIAN         CLEAR     53  52  96 NW3       30.02S
ALMA           CLOUDY    53  50  91 CALM      29.99F
ANN ARBOR      CLEAR     50  48  93 W5        30.01R
BAD AXE        PTCLDY    53  53 100 CALM      29.97F
DETROIT CITY   PTCLDY    62  54  74 W7        29.98S
DETROIT        CLOUDY    58  53  84 W6        30.00S
FLINT          PTCLDY    55  50  83 SW3       29.99S
GROSSE ILE     PTCLDY    61  55  82 W3        29.98S
HILLSDALE      CLEAR     54  53  99 CALM      30.02S
HOWELL         CLEAR     51  49  94 W6        30.00S

CITY           SKY/WX    TMP DP  RH WIND       PRES   REMARKS
JACKSON        CLEAR     52  49  89 CALM      30.01F
LAMBERTVILLE   CLEAR     55  54  94 CALM      30.01S
LANSING        PTCLDY    52  48  86 CALM      30.01S
LAPEER         NOT AVBL
MASON          CLEAR     50  49  97 CALM      30.01S
MONROE         CLEAR     55  54  94 W3        29.99S FOG
MT. CLEMENS    PTCLDY    59  56  90 W6        29.96S
PONTIAC        PTCLDY    56  52  86 W7        29.98S
PORT HOPE        N/A     56  54  93 CALM      29.96S
PORT HURON     FOG       54  54 100 CALM      29.97S VSB 1/2
TRI CITIES     CLOUDY    57  52  83 SW6       29.98F
YPSILANTI      PTCLDY    57  51  80 W5        30.00S
$$
MIZ043>046-050>051-056>058-064>065-071>073-077>080-310900-
SOUTHWEST LOWER MICHIGAN

CITY           SKY/WX    TMP DP  RH WIND       PRES   REMARKS
BATTLE CREEK   CLEAR     56  51  84 SW3       30.02F
BENTON HARBOR  CLEAR     53  52  96 CALM      30.02S FOG
BIG RAPIDS     MOCLDY    52  52 100 CALM      29.98S
COLDWATER      CLEAR     54  53  96 CALM      30.02F FOG
HOLLAND        PTCLDY    59  51  75 SW5       30.01S
GRAND RAPIDS   MOCLDY    56  52  86 CALM      30.00F
KALAMAZOO      CLEAR     55  51  86 S3        30.02F
MARSHALL       CLEAR     52  51  96 CALM      30.01F
MUSKEGON       PTCLDY    59  56  89 SW7       29.99F
$$
MIZ016>042-310900-
NORTHERN LOWER MICHIGAN

CITY           SKY/WX    TMP DP  RH WIND       PRES   REMARKS
ALPENA         CLOUDY    55  53  93 SW3       29.96F
BEAVER ISLAND  MOCLDY    49  49 100 W3        29.94F FOG
BELLAIRE       MOCLDY    53  51  91 CALM      29.95F
CADILLAC       MOCLDY    52  50  93 CALM      29.97F
CHARLEVOIX     MOCLDY    57  55  92 S5        29.97F
FRANKFORT      MOSUNNY   55  51  87 CALM      29.96S
GAYLORD        PTCLDY    53  51  93 CALM      29.97S
GRAYLING       MOCLDY    54  52  94 CALM      29.98F
HARBOR SPRINGS PTCLDY    55  53  94 CALM      29.94F
HOUGHTON LAKE  LGT RAIN  58  53  84 W12       29.99R
MANISTEE       PTCLDY    52  48  87 E3        29.97S
OSCODA         CLOUDY    55  54  97 CALM      29.96F
PELLSTON       MOCLDY    52  51  97 CALM      29.95F
TRAVERSE CITY  MOCLDY    57  50  77 S3        29.94F
$$
MIZ007>008-015-310900-
EASTERN UPPER MICHIGAN

CITY           SKY/WX    TMP DP  RH WIND       PRES   REMARKS
KINROSS        CLOUDY    54  54 100 CALM      29.93F
MACKINAC ISLAN MOCLDY    57  56  96 SW5       29.93F
NEWBERRY       MOCLDY    51  51  99 SW3       29.93F
S. S. MARIE    CLOUDY    54  52  93 CALM      29.93S
$$
MIZ004>006-011>014-085-310900-
CENTRAL UPPER MICHIGAN

CITY           SKY/WX    TMP DP  RH WIND       PRES   REMARKS
MANISTIQUE     MOCLDY    50  49  99 CALM      29.93F
ESCANABA       PTCLDY    46  43  87 CALM      29.95S
MENOMINEE      CLEAR     55  54  94 CALM      29.95S
SAWYER-GWINN   CLEAR     51  50  96 CALM      29.94F FOG
$$
MIZ001>003-009>011-084-310900-
WESTERN UPPER MICHIGAN

CITY           SKY/WX    TMP DP  RH WIND       PRES   REMARKS
IRON MOUNTAIN  CLEAR     51  50  96 CALM      29.95F FOG
HOUGHTON       MOCLDY    58  55  90 W10       29.92F
COPPER HARBOR    N/A     61  54  77 NW7       29.90F
IRONWOOD         N/A     50  48  93 CALM      29.95S VSB 3/4
$$

ABBREVIATIONS USED IN REMARKS
   TC - TEMPERATURE IN CELSIUS
  WCI - WIND CHILL INDEX
   HX - HEAT INDEX
  VSB - VISIBILITY



USA.gov is the U.S. government's official web portal to all federal, state and local government web resources and services.